Volver al catálogo

KUIPER-00415

ActivoComunicacionesLEO
NORAD 68930·PAYLOAD·🇺🇸 United States

Lanzado Apr 30, 2026 desde Guiana Space Centre

Loading…

Próximos Pases (próximas 24 horas)

TLE

ActualizadoSource: CelesTrak SupGP

Época: Sep 14, 2026, 18:45 UTC

1 68930C 26098M   26257.78171296  .00007558  00000+0  98924-3 0  2570
2 68930  51.9023  16.9821 0000531 101.0023  45.9603 14.79927625    11

Sigue KUIPER-00415 en tiempo real con AllMySat

Download on the App Store